Flag for China Weather past 2 weeks in Suzhou, Jiangsu, China

Now
77 °F

Clear.


Feels Like: 78 °F
Forecast: 72 / 86 °F
Wind: 3 mph from Southeast

Location: Shanghai Hongqiao Airport

Current Time: Aug 31, 2015 at 12:04:27 AM

Latest Report: Aug 30, 2015 at 11:30 PM


Visibility: 10 mi

Pressure: 29.83 "Hg

Humidity: 83%

Dew point: 72 °F

Location of SuzhouLocation

Historic Weather in Suzhou — Graph

°F

Suzhou temperature yesterday

Maximum temperature yesterday: 88 °F (at 12:00 PM)
Minimum temperature yesterday: 75 °F (at 3:30 AM)
Average temperature yesterday: 81 °F

Past Weeks' High & Low Weather Summary

 TemperatureHumidityPressure
High93 °F (Aug 19, 12:30 PM)100% (Aug 22, 9:00 AM)29.86 "Hg (Aug 22, 9:00 AM)
Low72 °F (Aug 24, 1:00 PM)43% (Aug 27, 2:00 PM)29.53 "Hg (Aug 24, 5:30 AM)
Average80 °F78%29.73 "Hg
* Reported Aug 15 11:00 PM — Aug 30 11:00 PM, Suzhou, Weather by CustomWeather, © 2015

Note: Actual official high and low records may vary slightly from our data, if they occured in-between our weather recording intervals... More about our weather records

Advertising

Suzhou weather history for previous 24 hours

 ConditionsComfort  
Time TempWeatherWind HumidityBarometerVisibility
11:00 PM
Sun, Aug 30
77 °FClear.3 mph83%29.83 "Hg10 mi
10:30 PM79 °FClear.3 mph79%29.83 "Hg10 mi
10:00 PM79 °FClear.6 mph74%29.83 "Hg10 mi
9:30 PM79 °FPassing clouds.3 mph74%29.83 "HgN/A
9:00 PM79 °FPassing clouds.6 mph79%29.83 "HgN/A
8:30 PM81 °FPassing clouds.6 mph70%29.80 "HgN/A
8:00 PM81 °FPassing clouds.6 mph70%29.80 "HgN/A
7:30 PM81 °FClear.6 mph70%29.80 "Hg10 mi
7:00 PM82 °FClear.8 mph62%29.77 "Hg10 mi
6:30 PM82 °FClear.8 mph62%29.77 "Hg10 mi
6:00 PM82 °FSunny.10 mph62%29.77 "Hg10 mi
5:30 PM84 °FSunny.8 mph55%29.77 "Hg10 mi
5:00 PM84 °FPassing clouds.10 mph58%29.77 "HgN/A
4:30 PM86 °FPassing clouds.8 mph55%29.77 "HgN/A
4:00 PM86 °FPassing clouds.8 mph55%29.74 "HgN/A
3:30 PM88 °FScattered clouds.8 mph52%29.74 "HgN/A
3:00 PM86 °FScattered clouds.8 mph55%29.77 "HgN/A
2:30 PM88 °FScattered clouds.8 mph52%29.77 "HgN/A
2:00 PM88 °FScattered clouds.8 mph49%29.77 "HgN/A
1:30 PM88 °FScattered clouds.6 mph52%29.77 "HgN/A
1:00 PM88 °FScattered clouds.8 mph52%29.80 "HgN/A
12:30 PM86 °FScattered clouds.8 mph55%29.80 "HgN/A
12:00 PM88 °FScattered clouds.6 mph52%29.80 "Hg5 mi
11:30 AM86 °FScattered clouds.6 mph59%29.80 "Hg5 mi
11:00 AM86 °FScattered clouds.8 mph62%29.80 "Hg5 mi
10:30 AM84 °FScattered clouds.6 mph62%29.83 "Hg5 mi
10:00 AM84 °FScattered clouds.6 mph62%29.83 "Hg4 mi
9:30 AM82 °FClear.3 mph70%29.83 "Hg4 mi
9:00 AM81 °FClear.3 mph74%29.83 "Hg4 mi
8:30 AM79 °FClear.3 mph79%29.80 "Hg4 mi
8:00 AM79 °FClear.3 mph79%29.80 "Hg4 mi
7:30 AM79 °FClear.1 mph84%29.80 "Hg4 mi
7:00 AM77 °FClear.3 mph83%29.80 "Hg4 mi
6:30 AM77 °FClear.3 mph83%29.80 "Hg4 mi
6:00 AM75 °FFog.3 mph89%29.80 "Hg3 mi
5:30 AM75 °FFog.3 mph89%29.80 "Hg3 mi
5:00 AM75 °FClear.1 mph94%29.80 "Hg4 mi
4:30 AM75 °FClear.1 mph89%29.77 "Hg4 mi
4:00 AM75 °FClear.1 mph94%29.77 "Hg4 mi
3:30 AM75 °FClear.3 mph89%29.77 "Hg4 mi
3:00 AM77 °FClear.3 mph89%29.77 "Hg4 mi
2:30 AM77 °FClear.3 mph89%29.77 "Hg4 mi
2:00 AM77 °FClear.3 mph89%29.77 "Hg4 mi
1:30 AM77 °FClear.3 mph89%29.77 "Hg4 mi
1:00 AM77 °FClear.3 mph83%29.77 "Hg4 mi
12:30 AM77 °FClear.1 mph83%29.77 "Hg4 mi
12:00 AM77 °FClear.3 mph83%29.77 "Hg4 mi
Weather by CustomWeather, © 2015

See weather overviewHow to use our weather pages